Regional Weather Roundup
Issued by NWS

Home | Current Version | Previous Version | Graphics & Text | Print | Product List | Glossary On
Versions: 1 2 3 4 5 6 7 8 9 10 11 12 13 14 15 16 17 18 19 20 21 22 23 24 25 26 27 28 29 30 31 32 33 34 35 36 37 38 39 40 41 42 43 44 45 46 47 48 49 50
000
ASUS44 KMEG 030510
RWRTN
TENNESSEE HOURLY STATE WEATHER ROUNDUP
NATIONAL WEATHER SERVICE MEMPHIS TN
1200 AM CDT MON AUG 03 2015

TNZ002-004-019-021-049-052-054-088>092-030600-
WEST TENNESSEE

CITY           SKY/WX    TMP DP  RH WIND       PRES   REMARKS
MEMPHIS INTL   PTCLDY    80  68  66 S3        29.92R
NWS MEMPHIS      N/A     75 N/A N/A MISG        N/A
JACKSON        CLEAR     72  69  90 CALM      29.92S FOG
DYERSBURG        N/A    N/A N/A N/A MISG        N/A
PARIS          CLEAR     66  64  94 CALM      29.92F
LEXINGTON      CLEAR     70  70 100 CALM      29.92S
$$

TNZ008-025-027-028-033-062-065-066-030600-
NORTH MIDDLE TENNESSEE

CITY           SKY/WX    TMP DP  RH WIND       PRES   REMARKS
NASHVILLE      CLEAR     72  64  76 CALM      29.93S
CLARKSVILLE    CLEAR     67  65  93 CALM      29.92R
SMYRNA         CLEAR     66  63  90 CALM      29.93F
CROSSVILLE     CLEAR     65  61  87 CALM      30.00S
$$

TNZ061-075-076-078-094-096-097-030600-
SOUTH MIDDLE TENNESSEE

CITY           SKY/WX    TMP DP  RH WIND       PRES   REMARKS
FAYETTEVILLE     N/A     70  57  64 NE3       29.95R
TULLAHOMA      CLEAR     64  61  88 CALM      29.96S
WINCHESTER     CLEAR     66  63  88 CALM      29.96S
COLUMBIA       CLEAR     66  66 100 CALM      29.93S
SHELBYVILLE    CLEAR     64  64 100 CALM      29.96R
$$

TNZ017-018-042-046-047-030600-
NORTHEAST TENNESSEE

CITY           SKY/WX    TMP DP  RH WIND       PRES   REMARKS
TRI CITIES     CLOUDY    67  61  81 CALM      29.97R
ELIZABETHTON   CLEAR     63  57  82 CALM      29.98S
$$

TNZ012-013-036-069-073-074-030600-
CENTRAL EAST TENNESSEE

CITY           SKY/WX    TMP DP  RH WIND       PRES   REMARKS
KNOXVILLE      NOT AVBL
OAK RIDGE      CLEAR     69  63  81 CALM      29.95S
GATLINBURG     CLEAR     70  63  78 CALM      29.94R
MORRISTOWN     CLEAR     70  61  73 CALM      29.96S
$$

TNZ083-085-099-030600-
SOUTHEAST TENNESSEE

CITY           SKY/WX    TMP DP  RH WIND       PRES   REMARKS
CHATTANOOGA    MOCLDY    75  64  68 CALM      29.93R
$$

SKY/WX REPORTED AS FAIR MEANS FEW OR NO CLOUDS BELOW
12 THOUSAND FEET.



USA.gov is the U.S. government's official web portal to all federal, state and local government web resources and services.